This is the latest recevied weather packets stored in our database for station/object SP2TMT-10. If no packets are shown the sender has not sent any weather packets the latest 10 day(s).
| Time | Temp. | Humidity | Pressure | Rain* | Wind** | Luminosity | Snow |
|---|---|---|---|---|---|---|---|
| 1777589778 | 20° C | 48% | 1026.6 hPa | - | - | - | - |
| 1777588878 | 20° C | 50% | 1026.6 hPa | - | - | - | - |
| 1777587978 | 20° C | 52% | 1026.6 hPa | - | - | - | - |
| 1777587078 | 20° C | 48% | 1026.5 hPa | - | - | - | - |
| 1777586178 | 20° C | 48% | 1026.5 hPa | - | - | - | - |
| 1777585278 | 20° C | 47% | 1026.6 hPa | - | - | - | - |
| 1777584378 | 20° C | 49% | 1026.5 hPa | - | - | - | - |
| 1777583472 | 19.44° C | 41% | 1026.5 hPa | - | - | - | - |
| 1777582572 | 19.44° C | 41% | 1026.3 hPa | - | - | - | - |
| 1777581672 | 19.44° C | 42% | 1026.4 hPa | - | - | - | - |
| 1777580772 | 19.44° C | 39% | 1026.4 hPa | - | - | - | - |
| 1777579872 | 19.44° C | 39% | 1026.6 hPa | - | - | - | - |
| 1777578972 | 19.44° C | 39% | 1026.6 hPa | - | - | - | - |
| 1777578072 | 19.44° C | 39% | 1026.6 hPa | - | - | - | - |
| 1777577172 | 19.44° C | 39% | 1026.7 hPa | - | - | - | - |
| 1777576272 | 19.44° C | 39% | 1026.6 hPa | - | - | - | - |
| 1777575372 | 19.44° C | 39% | 1026.6 hPa | - | - | - | - |
| 1777574471 | 19.44° C | 39% | 1026.6 hPa | - | - | - | - |
| 1777573571 | 19.44° C | 39% | 1026.5 hPa | - | - | - | - |
| 1777572671 | 19.44° C | 39% | 1026.5 hPa | - | - | - | - |
| 1777571771 | 19.44° C | 40% | 1026.5 hPa | - | - | - | - |
| 1777570871 | 19.44° C | 40% | 1026.5 hPa | - | - | - | - |
| 1777569966 | 19.44° C | 40% | 1026.4 hPa | - | - | - | - |
| 1777569065 | 19.44° C | 40% | 1026.5 hPa | - | - | - | - |
| 1777568165 | 19.44° C | 40% | 1026.6 hPa | - | - | - | - |
* Rain since midnight (hover to see other rain measurements)
** Current wind speed in m/s (hover to see current wind gust speed)